Location: Burzi?i
(45.0869°N, 16.0577°E)
Time: 11:30:57
(UTC+00:00)

FengYun 1-2 T - Pass Details

Date: 29 October 2020
Orbit: 846 x 882 km, 98.7° (Epoch: 28 November)

Event Time Altitude Azimuth Distance (km) Brightness Sun altitude
Rises 16:08:05 0° 149° (SSE) 3,469 7.2 -4.3°
Reaches altitude 10° 16:10:31 10° 145° (SE) 2,532 6.5 -4.7°
Maximum altitude 16:15:59 54° 70° (ENE) 1,061 4.4 -5.6°
Drops below altitude 10° 16:21:27 10° 355° (N) 2,533 6.6 -6.6°
Sets 16:23:53 0° 351° (N) 3,470 7.4 -7.0°
